STARLINK-6211, 57059

Orbit data source: Space-Track

STARLINK-6211, 57059 is a payload satellite owned by SpaceX/Seattle (US) in LEO that was launched on Thu, 22 Jun 2023 UTC via an FALCON 9 launch vehicle from the Air Force Western Test Range (AFWTR). Payload-class satellites include a variety of spacecraft equipped with specific instruments for various scientific and technological missions. These include communications satellites like Starlink; space stations such as the ISS; scientific satellites like the Hubble; Earth observation satellites from companies like Planet Labs, Umbra, and HawkEye 360; GPS; miniature CubeSats for education and research; and military/defense satellites.

Loading next visibility...
Identifier
57059, 2023-088M
Orbit
LEO
Country
Flag of USUS
Related business
Manufacturer
SpaceX/Seattle
Mission
Partially operational Commercial Communications
Bus & Motor
STARLINK, Unknown motor
Mass
305 kg wet, ~290 kg dry
Launch date (UTC)
Icon of a cake. It is the launch day of the satellite!2023-06-22 (3 years ago)
Launch vehicle
FALCON 9
Launch site
Air Force Western Test Range (AFWTR)
Object type
Payload
Rocket body
Debris
Shape & HBR
Box + 1 Pan, 10.1 m
Radar Cross Section
11.087 m², Large (>1 m²)

Expand to show TLE details & history
Last TLE update: 2 days ago

TLE from 2 days ago
0 STARLINK-6211
1 57059U 23088M   26171.26269061 -.00000312  00000-0 -18087-5 0  9993
2 57059  43.0021 251.0321 0001240 272.4320  87.6390 15.27576841166023
Epoch: 2026-06-20T06:18Z
TLE epoch observation values (Epoch: 2026-06-20T06:18:16.468Z)
Latitude
-0.00001°
Longitude
-112.01636°
Altitude
482.799 km
Speed
7.626 km/s
True Right ascension
16h 44m 07s
True Declination
0° 00' 00"
Sunlit
Object was in full shadow at epoch
Visualization orbit readout
Latitude
Unknown
Longitude
Unknown
Altitude
Unknown
Speed
Unknown
Apparent Right ascension
Unknown
Apparent Declination
Unknown
Sunlit
N/A
Visualization observer readout
Local Sidereal Time
21:32:01
Azimuth
Unknown
Elevation
Unknown
Doppler factor
Unknown
Orbital elements
Apogee altitude
485.854 km
Perigee altitude
484.152 km
Semi-major axis
6,863.14 km
Eccentricity
0.00012
Inclination
43.0021°
RAAN
251.0321°
Arg. of periapsis
272.432°
True anomaly
87.6532°
Mean anomaly
87.639°
Eccentric anomaly
87.6461°
Mean motion
3.81732 °/min
Orbital period
94.31 mins
BSTAR
-0.0000018087
Loading maneuver chart data...
Computing Atmospheric mass density...
Loading historical data...
Loading historical data...
Loading historical data...
Loading historical data...
Loading historical data...
Loading historical data...
Loading historical data...

Documentation

Showing up to 5 results
|